User: anonymous   Login
Location: Unspecified
(0.0000°N, 0.0000°E)
Time: 03:00:20
(UTC+00:00)
Language:

USA 276 - Orbit

View from above orbital plane
View from above orbital plane
View from above satellite
View from above satellite

Ground track
Ground track

The orbit data is extracted from the following two-line orbital elements,

1 42689U 17022A   17311.16674600 0.00006000  00000-0  76921-4 0    02
2 42689  50.0053  18.0403 0009081  88.0977 271.9021 15.58397535    00
Epoch (UTC): 07 November 2017 04:00:06
Eccentricity: 0.0009081
inclination: 50.0053°
perigee height: 386 km
apogee height: 398 km
right ascension of ascending node: 18.0403°
argument of perigee: 88.0977°
revolutions per day: 15.58397535
mean anomaly at epoch: 271.9021°
orbit number at epoch: 0

The dashed part of the orbit path shows where the satellite is in the earth's shadow,  

DLR